Time,TemperatureF,DewpointF,PressureIn,WindDirection,WindDirectionDegrees,WindSpeedMPH,WindSpeedGustMPH,Humidity,HourlyPrecipIn,Conditions,Clouds,dailyrainin,SoftwareType,DateUTC
2013-06-06 00:30:00,48.0,47.0,-100.00,East,80,2.0,7.0,98,-99.99,,,-99.99,,2013-06-06 05:30:00,
2013-06-06 00:52:00,48.0,47.0,-100.00,East,80,2.0,7.0,98,-99.99,,,-99.99,,2013-06-06 05:52:00,
2013-06-06 01:02:00,48.0,47.0,-100.00,East,80,2.0,7.0,98,-99.99,,,-99.99,,2013-06-06 06:02:00,
2013-06-06 01:12:00,48.0,47.0,-100.00,East,80,2.0,7.0,98,-99.99,,,-99.99,,2013-06-06 06:12:00,
2013-06-06 01:22:00,48.0,47.0,-100.00,East,80,2.0,7.0,98,-99.99,,,-99.99,,2013-06-06 06:22:00,
2013-06-06 02:32:00,47.0,46.0,-100.00,North,10,3.0,10.0,98,-99.99,,,-99.99,,2013-06-06 07:32:00,
2013-06-06 02:52:00,47.0,46.0,-100.00,North,10,3.0,10.0,98,-99.99,,,-99.99,,2013-06-06 07:52:00,
2013-06-06 03:02:00,47.0,46.0,-100.00,North,10,3.0,10.0,98,-99.99,,,-99.99,,2013-06-06 08:02:00,
2013-06-06 03:12:00,47.0,46.0,-100.00,North,10,3.0,10.0,98,-99.99,,,-99.99,,2013-06-06 08:12:00,
2013-06-06 03:22:00,47.0,46.0,-100.00,North,10,3.0,10.0,98,-99.99,,,-99.99,,2013-06-06 08:22:00,
2013-06-06 05:53:00,47.0,46.0,-100.00,NNE,20,0.0,0.0,98,-99.99,,,-99.99,,2013-06-06 10:53:00,
2013-06-06 06:02:00,47.0,46.0,-100.00,NNE,20,0.0,0.0,98,-99.99,,,-99.99,,2013-06-06 11:02:00,
2013-06-06 06:12:00,47.0,46.0,-100.00,NNE,20,0.0,0.0,98,-99.99,,,-99.99,,2013-06-06 11:12:00,
2013-06-06 06:22:00,47.0,46.0,-100.00,NNE,20,0.0,0.0,98,-99.99,,,-99.99,,2013-06-06 11:22:00,
2013-06-06 06:32:00,47.0,46.0,-100.00,NNE,20,0.0,0.0,98,-99.99,,,-99.99,,2013-06-06 11:32:00,
2013-06-06 07:53:00,48.0,47.0,-100.00,NE,35,0.0,0.0,98,-99.99,,,-99.99,,2013-06-06 12:53:00,
2013-06-06 08:03:00,48.0,47.0,-100.00,NE,35,0.0,0.0,98,-99.99,,,-99.99,,2013-06-06 13:03:00,
2013-06-06 08:13:00,48.0,47.0,-100.00,NE,35,0.0,0.0,98,-99.99,,,-99.99,,2013-06-06 13:13:00,
2013-06-06 08:22:00,48.0,47.0,-100.00,NE,35,0.0,0.0,98,-99.99,,,-99.99,,2013-06-06 13:22:00,
2013-06-06 08:32:00,48.0,47.0,-100.00,NE,35,0.0,0.0,98,-99.99,,,-99.99,,2013-06-06 13:32:00,
2013-06-06 08:53:00,49.0,48.0,-100.00,NNE,25,5.0,7.0,98,-99.99,,,-99.99,,2013-06-06 13:53:00,
2013-06-06 09:03:00,49.0,48.0,-100.00,NNE,25,5.0,7.0,98,-99.99,,,-99.99,,2013-06-06 14:03:00,
2013-06-06 09:13:00,49.0,48.0,-100.00,NNE,25,5.0,7.0,98,-99.99,,,-99.99,,2013-06-06 14:13:00,
2013-06-06 09:22:00,49.0,48.0,-100.00,NNE,25,5.0,7.0,98,-99.99,,,-99.99,,2013-06-06 14:22:00,
2013-06-06 09:33:00,49.0,48.0,-100.00,NNE,25,5.0,7.0,98,-99.99,,,-99.99,,2013-06-06 14:33:00,
2013-06-06 09:53:00,49.0,49.0,-100.00,NE,50,4.0,11.0,98,-99.99,,,-99.99,,2013-06-06 14:53:00,
2013-06-06 10:03:00,49.0,49.0,-100.00,NE,50,4.0,11.0,98,-99.99,,,-99.99,,2013-06-06 15:03:00,
2013-06-06 10:13:00,49.0,49.0,-100.00,NE,50,4.0,11.0,98,-99.99,,,-99.99,,2013-06-06 15:13:00,
2013-06-06 10:23:00,49.0,49.0,-100.00,NE,50,4.0,11.0,98,-99.99,,,-99.99,,2013-06-06 15:23:00,
2013-06-06 10:33:00,49.0,49.0,-100.00,NE,50,4.0,11.0,98,-99.99,,,-99.99,,2013-06-06 15:33:00,
2013-06-06 11:03:00,51.0,50.0,-100.00,NNE,20,6.0,14.0,98,-99.99,,,-99.99,,2013-06-06 16:03:00,
2013-06-06 11:12:00,51.0,50.0,-100.00,NNE,20,6.0,14.0,98,-99.99,,,-99.99,,2013-06-06 16:12:00,
2013-06-06 11:23:00,51.0,50.0,-100.00,NNE,20,6.0,14.0,98,-99.99,,,-99.99,,2013-06-06 16:23:00,
2013-06-06 11:33:00,51.0,50.0,-100.00,NNE,20,6.0,14.0,98,-99.99,,,-99.99,,2013-06-06 16:33:00,
2013-06-06 12:03:00,52.0,51.0,-100.00,NE,45,3.0,10.0,96,-99.99,,,-99.99,,2013-06-06 17:03:00,
2013-06-06 12:13:00,52.0,51.0,-100.00,NE,45,3.0,10.0,96,-99.99,,,-99.99,,2013-06-06 17:13:00,
2013-06-06 12:23:00,52.0,51.0,-100.00,NE,45,3.0,10.0,96,-99.99,,,-99.99,,2013-06-06 17:23:00,
2013-06-06 12:33:00,52.0,51.0,-100.00,NE,45,3.0,10.0,96,-99.99,,,-99.99,,2013-06-06 17:33:00,
2013-06-06 14:03:00,54.0,50.0,-100.00,NE,50,6.0,12.0,87,-99.99,,,-99.99,,2013-06-06 19:03:00,
2013-06-06 14:13:00,54.0,50.0,-100.00,NE,50,6.0,12.0,87,-99.99,,,-99.99,,2013-06-06 19:13:00,
2013-06-06 14:23:00,54.0,50.0,-100.00,NE,50,6.0,12.0,87,-99.99,,,-99.99,,2013-06-06 19:23:00,
2013-06-06 14:33:00,54.0,50.0,-100.00,NE,50,6.0,12.0,87,-99.99,,,-99.99,,2013-06-06 19:33:00,
2013-06-06 15:03:00,55.0,48.0,-100.00,NE,50,6.0,14.0,77,-99.99,,,-99.99,,2013-06-06 20:03:00,
2013-06-06 15:13:00,55.0,48.0,-100.00,NE,50,6.0,14.0,77,-99.99,,,-99.99,,2013-06-06 20:13:00,
2013-06-06 15:23:00,55.0,48.0,-100.00,NE,50,6.0,14.0,77,-99.99,,,-99.99,,2013-06-06 20:23:00,
2013-06-06 15:33:00,55.0,48.0,-100.00,NE,50,6.0,14.0,77,-99.99,,,-99.99,,2013-06-06 20:33:00,
2013-06-06 18:02:00,54.0,48.0,-100.00,North,10,4.0,9.0,80,-99.99,,,-99.99,,2013-06-06 23:02:00,
2013-06-06 18:13:00,54.0,48.0,-100.00,North,10,4.0,9.0,80,-99.99,,,-99.99,,2013-06-06 23:13:00,
2013-06-06 18:22:00,54.0,48.0,-100.00,North,10,4.0,9.0,80,-99.99,,,-99.99,,2013-06-06 23:22:00,
2013-06-06 18:33:00,54.0,48.0,-100.00,North,10,4.0,9.0,80,-99.99,,,-99.99,,2013-06-06 23:33:00,
2013-06-06 19:02:00,54.0,49.0,-100.00,NNE,25,1.0,7.0,84,-99.99,,,-99.99,,2013-06-07 00:02:00,
2013-06-06 19:12:00,54.0,49.0,-100.00,NNE,25,1.0,7.0,84,-99.99,,,-99.99,,2013-06-07 00:12:00,
2013-06-06 19:22:00,54.0,49.0,-100.00,NNE,25,1.0,7.0,84,-99.99,,,-99.99,,2013-06-07 00:22:00,
2013-06-06 19:32:00,54.0,49.0,-100.00,NNE,25,1.0,7.0,84,-99.99,,,-99.99,,2013-06-07 00:32:00,
2013-06-06 20:02:00,54.0,49.0,-100.00,NNE,20,1.0,4.0,84,-99.99,,,-99.99,,2013-06-07 01:02:00,
2013-06-06 20:12:00,54.0,49.0,-100.00,NNE,20,1.0,4.0,84,-99.99,,,-99.99,,2013-06-07 01:12:00,
2013-06-06 20:22:00,54.0,49.0,-100.00,NNE,20,1.0,4.0,84,-99.99,,,-99.99,,2013-06-07 01:22:00,
2013-06-06 20:32:00,54.0,49.0,-100.00,NNE,20,1.0,4.0,84,-99.99,,,-99.99,,2013-06-07 01:32:00,
2013-06-06 21:02:00,54.0,49.0,-100.00,North,5,1.0,3.0,85,-99.99,,,-99.99,,2013-06-07 02:02:00,
2013-06-06 21:12:00,54.0,49.0,-100.00,North,5,1.0,3.0,85,-99.99,,,-99.99,,2013-06-07 02:12:00,
2013-06-06 21:22:00,54.0,49.0,-100.00,North,5,1.0,3.0,85,-99.99,,,-99.99,,2013-06-07 02:22:00,
2013-06-06 21:32:00,54.0,49.0,-100.00,North,5,1.0,3.0,85,-99.99,,,-99.99,,2013-06-07 02:32:00,
2013-06-06 23:03:00,52.0,48.0,-100.00,NNE,15,1.0,6.0,87,-99.99,,,-99.99,,2013-06-07 04:03:00,
2013-06-06 23:12:00,52.0,48.0,-100.00,NNE,15,1.0,6.0,87,-99.99,,,-99.99,,2013-06-07 04:12:00,
2013-06-06 23:23:00,52.0,48.0,-100.00,NNE,15,1.0,6.0,87,-99.99,,,-99.99,,2013-06-07 04:23:00,
2013-06-06 23:33:00,52.0,48.0,-100.00,NNE,15,1.0,6.0,87,-99.99,,,-99.99,,2013-06-07 04:33:00,